Location: Warner Observatory
(35.1353°N, 89.5455°W)
Time: 14:09:42
(UTC-05:00)

Amateur Radio Satellites - All Passes

Search period start: 03 August 2015 13:39
Search period end: 04 August 2015 13:39
Location: Warner Observatory, 35.1353°N, 89.5455°W

Satellite Date Start Highest point End Downlink Frequencies (MHz)
Time Altitude Azimuth
ITUPSAT 1 03 Aug 13:50:48 13:54:00 18° 93° (E) 13:57:22 437.325
AO-7 03 Aug 14:06:53 14:10:43 15° 54° (NE) 14:15:02 29.400- 29.500
CUSAT 1 03 Aug 14:14:53 14:18:08 18° 76° (ENE) 14:22:11 437.405
Cosmos 2504 03 Aug 14:31:05 14:39:36 76° 266° (W) 14:48:10 435.465 / 435.565
SPROUT 03 Aug 14:32:27 14:34:24 13° 292° (WNW) 14:36:09 437.525
TISAT 1 03 Aug 14:32:50 14:35:54 19° 290° (WNW) 14:38:52 437.305
Gurwin Techsat 1B 03 Aug 14:41:54 14:47:13 86° 255° (WSW) 14:52:35 435.225
BEESAT 03 Aug 14:44:03 14:48:50 74° 102° (ESE) 14:53:34 436.000
ITAMSAT 1 03 Aug 14:48:53 14:54:06 82° 256° (WSW) 14:59:21 435.822/435.867
KKS-1 03 Aug 14:55:38 14:57:47 14° 91° (E) 15:00:11 437.445
HORYU 2 03 Aug 14:57:55 14:59:57 13° 67° (ENE) 15:02:14 437.375
Oscar 19 03 Aug 15:04:16 15:07:09 14° 270° (W) 15:09:43 437.125/150
SWISSCUBE 03 Aug 15:05:06 15:09:49 59° 285° (WNW) 15:14:28 437.505
JAS-2 03 Aug 15:05:11 15:11:05 55° 72° (ENE) 15:17:49 435.910
ITUPSAT 1 03 Aug 15:27:38 15:32:04 38° 288° (WNW) 15:36:26 437.325
VERMONT LUNAR 03 Aug 15:44:09 15:45:28 12° 143° (SE) 15:46:54 437.305
GONETS M04 03 Aug 15:45:48 15:50:22 16° 63° (ENE) 15:55:32
AO-7 03 Aug 15:53:59 16:02:19 75° 71° (ENE) 16:10:41 29.400- 29.500
DANDE 03 Aug 15:54:56 15:59:09 67° 262° (W) 16:04:52 436.750
CUSAT 1 03 Aug 15:56:04 16:00:35 43° 263° (W) 16:06:26 437.405
STARS 03 Aug 15:56:51 16:01:02 41° 99° (E) 16:05:14 437.465
BEESAT 03 Aug 16:25:14 16:26:07 10° 295° (WNW) 16:26:43 436.000
Cosmos 2504 03 Aug 16:27:40 16:30:43 12° 280° (W) 16:32:59 435.465 / 435.565
KKS-1 03 Aug 16:30:26 16:34:42 45° 286° (WNW) 16:38:57 437.445
HORYU 2 03 Aug 16:31:53 16:36:12 49° 260° (W) 16:40:33 437.375
JAS-2 03 Aug 16:52:15 16:56:47 20° 272° (W) 17:01:26 435.910
VERMONT LUNAR 03 Aug 17:18:41 17:21:50 79° 158° (SSE) 17:25:01 437.305
Cubesat XI-IV 03 Aug 17:22:29 17:25:58 18° 67° (ENE) 17:29:39 437.490
PCSat 03 Aug 17:23:46 17:28:06 24° 53° (NE) 17:32:31 145.827
SO-50 03 Aug 17:24:15 17:28:30 28° 51° (NE) 17:32:44 436.795
Cosmos 2499 03 Aug 17:30:10 17:35:48 19° 65° (ENE) 17:41:56 435.465 / 435.565
STARS 03 Aug 17:34:27 17:37:10 16° 292° (WNW) 17:39:44 437.465
GONETS M04 03 Aug 17:39:52 17:48:38 90° 69° (ENE) 17:57:25
MOZHAYETS 4 03 Aug 17:40:26 17:45:02 69° 284° (WNW) 17:49:35
AO-7 03 Aug 17:49:56 17:55:57 20° 268° (W) 18:01:30 29.400- 29.500
CUBESAT XI-V 03 Aug 18:06:25 18:09:07 16° 91° (E) 18:12:01 437.345
CUTE-I 03 Aug 18:15:32 18:20:46 59° 74° (ENE) 18:26:03 437.470
PHONESAT 2.4 03 Aug 18:17:14 18:20:19 29° 148° (SSE) 18:23:25 2401.200-2431.200
VERMONT LUNAR 03 Aug 18:55:48 18:58:44 33° 351° (N) 19:01:40 437.305
BRITE-PL 03 Aug 18:58:45 19:01:10 15° 70° (ENE) 19:03:42 437.365/2234.400
Cubesat XI-IV 03 Aug 19:00:31 19:05:43 50° 260° (W) 19:10:56 437.490
SO-50 03 Aug 19:04:42 19:09:02 31° 248° (WSW) 19:13:12 436.795
PCSat 03 Aug 19:06:36 19:11:42 42° 249° (WSW) 19:16:44 145.827
ISS 03 Aug 19:20:47 19:23:36 28° 132° (SE) 19:26:29 145.825
Cosmos 2499 03 Aug 19:21:14 19:30:07 83° 265° (W) 19:38:56 435.465 / 435.565
PRISM 03 Aug 19:35:02 19:38:39 30° 97° (E) 19:42:17 437.425
CANX-2 03 Aug 19:38:54 19:40:38 13° 68° (ENE) 19:42:35 2200.000
GONETS M04 03 Aug 19:39:51 19:44:29 15° 279° (W) 19:48:27
STRAND 1 03 Aug 19:41:50 19:46:46 49° 99° (E) 19:51:41 437.568
CUBESAT XI-V 03 Aug 19:42:28 19:46:47 40° 286° (WNW) 19:51:03 437.345
PHONESAT 2.4 03 Aug 19:54:41 19:58:09 58° 342° (NNW) 20:01:38 2401.200-2431.200
CUTE-I 03 Aug 19:58:18 20:01:19 14° 270° (W) 20:04:01 437.470
DOVE 4 03 Aug 20:06:27 20:10:00 28° 72° (ENE) 20:13:36 437.250
HO-68 03 Aug 20:17:58 20:24:50 54° 70° (ENE) 20:31:47 435.675
GOMX 1 03 Aug 20:31:17 20:35:31 76° 259° (WSW) 20:39:40 467.674
VERMONT LUNAR 03 Aug 20:32:57 20:35:52 33° 8° (N) 20:38:48 437.305
BRITE-PL 03 Aug 20:35:26 20:39:32 36° 262° (W) 20:43:25 437.365/2234.400
COMPASS 1 03 Aug 20:36:08 20:39:52 32° 73° (ENE) 20:43:39 437.405
ZACube-1 03 Aug 20:53:49 20:54:35 11° 66° (ENE) 20:55:36 437.345
RS-15 03 Aug 20:54:50 21:05:25 63° 113° (ESE) 21:16:24 29.354- 29.394
SEEDS 03 Aug 20:55:26 20:59:40 73° 77° (ENE) 21:03:56 437.485
ISS 03 Aug 20:57:20 21:00:03 23° 327° (NNW) 21:02:44 145.825
CUTE 1.7 + AOD 2 03 Aug 21:03:01 21:07:16 71° 259° (WSW) 21:11:34 437.475
PRISM 03 Aug 21:11:05 21:13:53 18° 291° (WNW) 21:16:32 437.425
CANX-2 03 Aug 21:12:02 21:16:10 48° 261° (W) 21:20:20 2200.000
FUNcube-1 03 Aug 21:12:04 21:14:47 17° 69° (ENE) 21:17:41 145.935
AAUSAT CUBESAT 2 03 Aug 21:14:28 21:18:39 80° 77° (ENE) 21:22:53 437.432
Cosmos 2499 03 Aug 21:17:49 21:22:13 14° 280° (W) 21:25:53 435.465 / 435.565
Oscar 11 03 Aug 21:18:28 21:22:25 36° 73° (ENE) 21:26:27 145.826/435.025
UWE-3 03 Aug 21:21:10 21:24:49 30° 72° (ENE) 21:28:36 435.000/436.395/437.385
STRAND 1 03 Aug 21:22:17 21:25:37 17° 293° (WNW) 21:28:45 437.568
CINEMA 3 03 Aug 21:31:14 21:35:20 63° 260° (W) 21:39:31 145.822/145.860
PHONESAT 2.4 03 Aug 21:33:16 21:36:28 32° 359° (N) 21:39:41 2401.200-2431.200
CUBEBUG 2 03 Aug 21:42:20 21:46:30 73° 76° (ENE) 21:50:46 437.445
DOVE 4 03 Aug 21:45:00 21:47:52 17° 267° (W) 21:50:36 437.250
Cosmos 2491 03 Aug 21:49:12 21:52:46 13° 61° (ENE) 21:57:04 435.465 / 435.565
M-CUBED/EXP-1 PRIME 03 Aug 21:54:22 21:57:58 22° 97° (E) 22:01:34 437.505
DX 1 03 Aug 21:54:25 21:56:56 16° 68° (ENE) 21:59:37 434.975-435.025
HO-68 03 Aug 22:07:14 22:12:57 25° 267° (W) 22:18:27 435.675
VERMONT LUNAR 03 Aug 22:09:35 22:12:46 79° 205° (SSW) 22:15:55 437.305
COMPASS 1 03 Aug 22:12:44 22:15:37 17° 268° (W) 22:18:21 437.405
BEESAT 2 03 Aug 22:13:32 22:16:28 20° 112° (ESE) 22:19:33 435.950
DELFI C3 03 Aug 22:15:08 22:19:10 67° 259° (W) 22:23:14 145.870
UNISAT 6 03 Aug 22:18:54 22:20:37 12° 90° (E) 22:22:38 437.425
VELOX 1 03 Aug 22:19:40 22:22:29 17° 69° (ENE) 22:25:27 145.980
AUBIESAT-1 03 Aug 22:20:18 22:24:36 35° 101° (E) 22:28:45 437.475
ZACube-1 03 Aug 22:26:21 22:30:28 56° 260° (W) 22:34:42 437.345
ESTCUBE 1 03 Aug 22:42:32 22:45:57 22° 70° (ENE) 22:49:30 437.505/2401.250
FUNcube-1 03 Aug 22:47:05 22:50:53 32° 264° (W) 22:54:43 145.935
BEESAT 3 03 Aug 22:47:48 22:51:50 70° 118° (ESE) 22:55:55 437.485
HUMSAT D 03 Aug 22:48:22 22:52:30 82° 256° (WSW) 22:56:43 437.325/437.525
UKube-1 03 Aug 22:55:40 22:59:58 75° 76° (ENE) 23:04:17 .
Oscar 11 03 Aug 22:56:02 22:58:46 16° 268° (W) 23:01:20 145.826/435.025
UWE-3 03 Aug 22:58:29 23:01:26 18° 268° (W) 23:04:18 435.000/436.395/437.385
TIGRISAT 03 Aug 22:58:53 23:03:08 34° 97° (E) 23:07:25 435.000
ANTELSAT 03 Aug 23:01:54 23:06:18 38° 98° (E) 23:10:41 437.575/2403.000
RS-15 03 Aug 23:08:37 23:18:33 36° 316° (NW) 23:28:38 29.354- 29.394
PHONESAT 2.4 03 Aug 23:11:24 23:14:50 50° 15° (NNE) 23:18:15 2401.200-2431.200
POLYITAN 1 03 Aug 23:14:34 23:17:26 18° 93° (E) 23:20:26 437.675
AISAT 03 Aug 23:16:13 23:20:37 83° 77° (ENE) 23:25:01 437.250
AIST 1 03 Aug 23:18:00 23:22:16 80° 82° (E) 23:26:31
BUGSAT 1 03 Aug 23:20:07 23:20:53 11° 91° (E) 23:21:57 437.445
CUBEBUG 1 03 Aug 23:21:05 23:25:15 48° 74° (ENE) 23:29:27 437.445
50 SAT 03 Aug 23:23:40 23:27:32 65° 260° (W) 23:31:26 437.505
M-CUBED/EXP-1 PRIME 03 Aug 23:28:27 23:32:48 34° 293° (WNW) 23:36:56 437.505
DX 1 03 Aug 23:28:49 23:32:54 39° 262° (W) 23:36:57 434.975-435.025
POPSAT HIP 1 03 Aug 23:29:48 23:33:23 26° 96° (E) 23:37:00 437.405
QB50P2 03 Aug 23:38:01 23:41:55 34° 97° (E) 23:45:50 145.880/145.840
Cosmos 2491 03 Aug 23:42:34 23:51:20 81° 84° (E) 00:00:03 435.465 / 435.565
SPROUT 03 Aug 23:46:00 23:49:27 25° 71° (ENE) 23:53:00 437.525
TISAT 1 03 Aug 23:46:53 23:49:13 15° 69° (ENE) 23:51:44 437.305
VERMONT LUNAR 03 Aug 23:47:43 23:49:07 12° 217° (SW) 23:50:26 437.305
BEESAT 2 03 Aug 23:50:42 23:54:21 30° 306° (NW) 23:58:00 435.950
UNISAT 6 03 Aug 23:53:09 23:57:47 56° 285° (WNW) 00:02:24 437.425
VELOX 1 03 Aug 23:54:43 23:58:47 36° 262° (W) 00:02:50 145.980
AUBIESAT-1 03 Aug 23:55:27 23:59:03 21° 296° (WNW) 00:02:26 437.475
YUBILEINY 03 Aug 23:58:29 00:06:45 51° 91° (E) 00:15:08 435.215
DUCHIFAT 1 03 Aug 23:58:49 00:03:01 57° 101° (E) 00:07:12 145.980
NANOSAT C BR1 04 Aug 00:04:23 00:08:39 70° 101° (E) 00:12:54 145.865
QB50P1 04 Aug 00:04:26 00:08:42 72° 101° (ESE) 00:12:58 145.935-145.965
AIST 2 04 Aug 00:05:23 00:09:36 79° 118° (ESE) 00:13:53 435.215
ESTCUBE 1 04 Aug 00:18:42 00:22:41 29° 264° (W) 00:26:37 437.505/2401.250
BEESAT 3 04 Aug 00:29:06 00:30:17 11° 315° (NW) 00:31:18 437.485
SWISSCUBE 04 Aug 00:35:08 00:35:38 10° 65° (ENE) 00:36:28 437.505
TIGRISAT 04 Aug 00:36:05 00:39:40 21° 290° (WNW) 00:43:07 435.000
ANTELSAT 04 Aug 00:39:26 00:42:48 19° 291° (WNW) 00:46:01 437.575/2403.000
O/OREOS (USA 219) 04 Aug 00:44:27 00:48:37 41° 105° (ESE) 00:52:53 437.305
PHONESAT 2.4 04 Aug 00:49:29 00:52:45 36° 211° (SSW) 00:55:59 2401.200-2431.200
POLYITAN 1 04 Aug 00:49:34 00:53:25 32° 287° (WNW) 00:57:13 437.675
BUGSAT 1 04 Aug 00:52:43 00:56:40 48° 285° (WNW) 01:00:39 437.445
ITUPSAT 1 04 Aug 00:55:14 00:58:01 16° 67° (ENE) 01:01:01 437.325
CUBEBUG 1 04 Aug 01:00:09 01:01:57 12° 270° (W) 01:03:28 437.445
POPSAT HIP 1 04 Aug 01:05:47 01:09:07 22° 289° (WNW) 01:12:22 437.405
Cosmos 2504 04 Aug 01:11:19 01:13:31 12° 80° (E) 01:16:24 435.465 / 435.565
QB50P2 04 Aug 01:14:42 01:17:34 17° 291° (WNW) 01:20:17 145.880/145.840
TISAT 1 04 Aug 01:20:50 01:24:42 37° 262° (W) 01:28:35 437.305
SPROUT 04 Aug 01:22:05 01:25:30 22° 266° (W) 01:28:49 437.525
RS-15 04 Aug 01:30:47 01:35:56 13° 349° (NNW) 01:40:56 29.354- 29.394
DUCHIFAT 1 04 Aug 01:37:21 01:38:22 11° 293° (WNW) 01:39:08 145.980
Oscar 19 04 Aug 01:37:42 01:41:53 25° 95° (E) 01:46:12 437.125/150
Cosmos 2491 04 Aug 01:41:56 01:47:18 17° 278° (W) 01:52:05 435.465 / 435.565
BEESAT 04 Aug 01:47:12 01:51:53 58° 74° (ENE) 01:56:37 436.000
AIST 2 04 Aug 01:47:43 01:48:47 11° 316° (NW) 01:49:38 435.215
ISS 04 Aug 01:51:38 01:53:11 13° 26° (NNE) 01:54:48 145.825
YUBILEINY 04 Aug 01:56:27 02:03:58 30° 289° (WNW) 02:11:18 435.215
SWISSCUBE 04 Aug 02:08:08 02:12:56 76° 257° (WSW) 02:17:45 437.505
JAS-2 04 Aug 02:22:54 02:23:29 10° 82° (E) 02:24:53 435.910
O/OREOS (USA 219) 04 Aug 02:25:26 02:28:19 16° 302° (WNW) 02:31:02 437.305
ITUPSAT 1 04 Aug 02:30:55 02:35:34 48° 261° (W) 02:40:13 437.325
JUGNU 04 Aug 02:47:03 02:50:35 16° 173° (S) 02:54:08 437.505
STARS 04 Aug 02:51:05 02:54:34 25° 71° (ENE) 02:58:11 437.465
Cosmos 2504 04 Aug 02:57:31 03:04:38 90° 274° (W) 03:12:19 435.465 / 435.565
Gurwin Techsat 1B 04 Aug 03:01:31 03:06:40 50° 99° (E) 03:11:49 435.225
ITAMSAT 1 04 Aug 03:05:11 03:10:08 46° 99° (E) 03:15:05 435.822/435.867
Oscar 19 04 Aug 03:16:40 03:21:17 33° 289° (WNW) 03:25:50 437.125/150
CUSAT 1 04 Aug 03:22:27 03:23:02 11° 95° (E) 03:23:46 437.405
KKS-1 04 Aug 03:24:59 03:29:24 75° 258° (WSW) 03:33:50 437.445
ISS 04 Aug 03:26:46 03:30:02 84° 220° (SW) 03:33:16 145.825
BEESAT 04 Aug 03:28:11 03:30:10 12° 270° (W) 03:31:50 436.000
RS-15 04 Aug 03:47:54 03:55:07 18° 25° (NNE) 04:02:58 29.354- 29.394
AO-7 04 Aug 04:00:07 04:07:01 30° 96° (E) 04:14:07 29.400- 29.500
JAS-2 04 Aug 04:02:07 04:10:00 71° 101° (E) 04:17:33 435.910
HORYU 2 04 Aug 04:26:15 04:30:28 39° 98° (E) 04:34:40 437.375
STARS 04 Aug 04:27:22 04:30:57 24° 265° (W) 04:34:29 437.465
JUGNU 04 Aug 04:35:03 04:38:55 18° 183° (S) 04:42:44 437.505
MOZHAYETS 4 04 Aug 04:38:44 04:43:22 76° 76° (ENE) 04:48:01
Gurwin Techsat 1B 04 Aug 04:42:40 04:46:18 18° 293° (WNW) 04:49:44 435.225
GONETS M04 04 Aug 04:43:30 04:49:04 20° 83° (E) 04:55:06
SRMSAT 04 Aug 04:45:00 04:48:34 16° 174° (S) 04:52:09 437.500
ITAMSAT 1 04 Aug 04:45:43 04:49:19 19° 293° (WNW) 04:52:45 435.822/435.867
Cosmos 2504 04 Aug 04:54:49 04:58:16 13° 298° (WNW) 05:01:16 435.465 / 435.565
CUSAT 1 04 Aug 05:04:25 05:05:30 11° 285° (WNW) 05:06:26 437.405
DANDE 04 Aug 05:06:26 05:08:59 22° 281° (W) 05:11:12 436.750
CUBESAT XI-V 04 Aug 05:08:13 05:09:45 12° 67° (ENE) 05:11:33 437.345
JAS-2 04 Aug 05:48:25 05:54:21 23° 296° (WNW) 05:59:54 435.910
AO-7 04 Aug 05:52:08 06:00:11 54° 292° (WNW) 06:08:08 29.400- 29.500
RS-15 04 Aug 05:59:34 06:11:06 57° 53° (NE) 06:23:07 29.354- 29.394
HORYU 2 04 Aug 06:03:50 06:06:49 17° 292° (WNW) 06:09:37 437.375
Cosmos 2499 04 Aug 06:06:39 06:09:02 12° 80° (E) 06:12:08 435.465 / 435.565
PRISM 04 Aug 06:22:57 06:25:26 16° 69° (ENE) 06:28:03 437.425
JUGNU 04 Aug 06:24:49 06:27:12 12° 193° (SSW) 06:29:31 437.505
SRMSAT 04 Aug 06:33:15 06:37:01 17° 184° (S) 06:40:46 437.500
CUTE-I 04 Aug 06:36:20 06:40:56 30° 96° (E) 06:45:36 437.470
GONETS M04 04 Aug 06:36:28 06:45:10 72° 279° (W) 06:53:51
CUBESAT XI-V 04 Aug 06:42:05 06:46:44 62° 260° (W) 06:51:22 437.345
STRAND 1 04 Aug 06:54:27 06:59:24 51° 73° (ENE) 07:04:24 437.568
BEESAT 3 04 Aug 07:10:13 07:12:47 17° 49° (NE) 07:15:27 437.485
Cubesat XI-IV 04 Aug 07:20:53 07:26:14 85° 100° (E) 07:31:33 437.490
SO-50 04 Aug 07:36:37 07:39:39 18° 110° (ESE) 07:42:55 436.795
Cosmos 2499 04 Aug 07:53:38 08:01:01 88° 96° (E) 08:09:04 435.465 / 435.565
PRISM 04 Aug 07:56:44 08:00:36 35° 262° (W) 08:04:27 437.425
PCSat 04 Aug 08:01:45 08:06:44 40° 111° (ESE) 08:11:48 145.827
DOVE 4 04 Aug 08:09:27 08:11:07 12° 90° (E) 08:13:08 437.250
BEESAT 2 04 Aug 08:12:07 08:16:08 58° 58° (ENE) 08:20:04 435.950
RS-15 04 Aug 08:12:32 08:23:22 40° 252° (WSW) 08:34:10 29.354- 29.394
CUTE-I 04 Aug 08:16:24 08:20:57 29° 291° (WNW) 08:25:23 437.470
SRMSAT 04 Aug 08:23:27 08:25:28 12° 193° (SSW) 08:27:24 437.500
AIST 2 04 Aug 08:30:48 08:33:55 20° 50° (NE) 08:37:04 435.215
GOMX 1 04 Aug 08:35:17 08:39:40 39° 98° (E) 08:44:22 467.674
STRAND 1 04 Aug 08:35:47 08:38:58 16° 269° (W) 08:41:53 437.568
M-CUBED/EXP-1 PRIME 04 Aug 08:39:54 08:42:25 16° 62° (ENE) 08:45:13 437.505
GONETS M04 04 Aug 08:41:13 08:43:58 11° 301° (WNW) 08:45:54
BRITE-PL 04 Aug 08:41:47 08:46:21 81° 102° (ESE) 08:51:16 437.365/2234.400
SEEDS 04 Aug 08:44:18 08:46:46 15° 92° (E) 08:49:23 437.485
BEESAT 3 04 Aug 08:47:09 08:50:54 38° 246° (WSW) 08:54:35 437.485
CUTE 1.7 + AOD 2 04 Aug 08:51:59 08:55:28 24° 95° (E) 08:59:00 437.475
CANX-2 04 Aug 09:00:35 09:04:30 35° 97° (E) 09:08:26 2200.000
AAUSAT CUBESAT 2 04 Aug 09:01:50 09:04:20 16° 92° (E) 09:07:01 437.432
Cubesat XI-IV 04 Aug 09:04:22 09:05:42 11° 297° (WNW) 09:06:41 437.490
AUBIESAT-1 04 Aug 09:04:49 09:08:15 26° 65° (ENE) 09:11:57 437.475
SO-50 04 Aug 09:15:18 09:19:51 45° 305° (NW) 09:24:32 436.795
CINEMA 3 04 Aug 09:28:36 09:33:05 39° 98° (E) 09:37:44 145.822/145.860
HO-68 04 Aug 09:36:20 09:43:33 76° 104° (ESE) 09:50:44 435.675
CUBEBUG 2 04 Aug 09:36:56 09:40:27 21° 93° (E) 09:44:09 437.445
DOVE 4 04 Aug 09:44:31 09:49:13 61° 284° (WNW) 09:54:10 437.250
PCSat 04 Aug 09:45:49 09:50:18 25° 307° (NW) 09:54:43 145.827
Cosmos 2499 04 Aug 09:51:29 09:55:38 14° 298° (WNW) 09:59:22 435.465 / 435.565
TIGRISAT 04 Aug 09:55:23 09:58:28 20° 69° (ENE) 10:01:44 435.000
COMPASS 1 04 Aug 09:57:36 10:01:50 85° 283° (WNW) 10:06:01 437.405
DELFI C3 04 Aug 09:58:06 10:01:02 20° 94° (E) 10:04:03 145.870
ANTELSAT 04 Aug 09:58:27 10:01:48 22° 70° (ENE) 10:05:18 437.575/2403.000
AIST 2 04 Aug 10:08:49 10:12:33 32° 247° (WSW) 10:16:11 435.215
M-CUBED/EXP-1 PRIME 04 Aug 10:13:01 10:16:50 39° 258° (WSW) 10:20:57 437.505
YUBILEINY 04 Aug 10:13:41 10:19:45 21° 67° (ENE) 10:26:16 435.215
GOMX 1 04 Aug 10:14:16 10:17:37 19° 289° (WNW) 10:20:56 467.674
ZACube-1 04 Aug 10:17:58 10:22:09 35° 97° (E) 10:26:22 437.345
SEEDS 04 Aug 10:18:48 10:22:42 36° 287° (WNW) 10:26:34 437.485
POPSAT HIP 1 04 Aug 10:20:59 10:23:00 14° 68° (ENE) 10:25:12 437.405
CUTE 1.7 + AOD 2 04 Aug 10:27:50 10:31:17 23° 289° (WNW) 10:34:37 437.475
QB50P2 04 Aug 10:28:47 10:31:32 18° 70° (ENE) 10:34:26 145.880/145.840
HUMSAT D 04 Aug 10:36:12 10:39:25 21° 94° (E) 10:42:46 437.325/437.525
AAUSAT CUBESAT 2 04 Aug 10:36:16 10:40:04 33° 287° (WNW) 10:43:49 437.432
CANX-2 04 Aug 10:37:21 10:40:11 17° 291° (WNW) 10:42:50 2200.000
FUNcube-1 04 Aug 10:37:47 10:42:17 58° 100° (E) 10:46:49 145.935
AUBIESAT-1 04 Aug 10:39:35 10:42:54 23° 262° (W) 10:46:22 437.475
Oscar 11 04 Aug 10:44:33 10:48:54 68° 284° (WNW) 10:53:12 145.826/435.025
Cosmos 2491 04 Aug 10:46:58 10:51:57 18° 82° (E) 10:57:29 435.465 / 435.565
UKube-1 04 Aug 10:47:37 10:50:08 16° 93° (E) 10:52:52 .
DUCHIFAT 1 04 Aug 10:48:22 10:51:52 27° 72° (ENE) 10:55:28 145.980
UNISAT 6 04 Aug 10:48:42 10:53:04 86° 74° (ENE) 10:57:33 437.425
UWE-3 04 Aug 10:49:31 10:54:11 76° 283° (WNW) 10:58:51 435.000/436.395/437.385
NANOSAT C BR1 04 Aug 10:53:56 10:57:39 33° 73° (ENE) 11:01:27 145.865
QB50P1 04 Aug 10:54:10 10:57:56 34° 73° (ENE) 11:01:45 145.935-145.965
O/OREOS (USA 219) 04 Aug 10:57:20 11:01:46 48° 67° (ENE) 11:06:13 437.305
50 SAT 04 Aug 11:03:06 11:05:43 17° 93° (E) 11:08:27 437.505
CINEMA 3 04 Aug 11:06:33 11:10:02 20° 290° (WNW) 11:13:27 145.822/145.860
AISAT 04 Aug 11:10:51 11:14:02 20° 94° (E) 11:17:21 437.250
CUBEBUG 2 04 Aug 11:12:58 11:17:11 33° 287° (WNW) 11:21:24 437.445
CUBEBUG 1 04 Aug 11:15:23 11:16:35 11° 90° (E) 11:18:06 437.445
DX 1 04 Aug 11:20:02 11:24:10 43° 99° (E) 11:28:19 434.975-435.025
HO-68 04 Aug 11:25:48 11:30:37 19° 299° (WNW) 11:35:06 435.675
TIGRISAT 04 Aug 11:31:10 11:35:02 31° 264° (W) 11:38:57 435.000
DELFI C3 04 Aug 11:32:42 11:36:05 25° 288° (WNW) 11:39:23 145.870
ANTELSAT 04 Aug 11:34:42 11:38:28 27° 265° (W) 11:42:14 437.575/2403.000
POLYITAN 1 04 Aug 11:38:45 11:42:55 65° 260° (W) 11:47:06 437.675
BUGSAT 1 04 Aug 11:39:16 11:43:17 72° 76° (ENE) 11:47:19 437.445
AIST 1 04 Aug 11:43:51 11:48:05 55° 94° (E) 11:52:19
VELOX 1 04 Aug 11:47:53 11:52:11 52° 100° (E) 11:56:30 145.980
POPSAT HIP 1 04 Aug 11:54:33 11:58:32 42° 261° (W) 12:02:32 437.405
ZACube-1 04 Aug 11:54:56 11:58:16 20° 290° (WNW) 12:01:29 437.345
QB50P2 04 Aug 12:03:26 12:07:13 31° 263° (W) 12:10:58 145.880/145.840
YUBILEINY 04 Aug 12:08:45 12:17:35 73° 266° (W) 12:26:20 435.215
HUMSAT D 04 Aug 12:11:25 12:15:10 28° 288° (WNW) 12:18:49 437.325/437.525
ESTCUBE 1 04 Aug 12:13:51 12:18:21 74° 102° (ESE) 12:22:48 437.505/2401.250
FUNcube-1 04 Aug 12:16:13 12:18:10 12° 293° (WNW) 12:19:53 145.935
UKube-1 04 Aug 12:22:27 12:26:26 36° 288° (WNW) 12:30:23 .
DUCHIFAT 1 04 Aug 12:24:36 12:27:42 20° 266° (W) 12:30:42 145.980
NANOSAT C BR1 04 Aug 12:30:53 12:33:37 16° 267° (W) 12:36:11 145.865
QB50P1 04 Aug 12:31:15 12:33:56 16° 268° (W) 12:36:26 145.935-145.965
50 SAT 04 Aug 12:36:53 12:40:20 28° 288° (WNW) 12:43:41 437.505
O/OREOS (USA 219) 04 Aug 12:38:31 12:40:49 13° 260° (W) 12:42:52 437.305
Cosmos 2491 04 Aug 12:39:10 12:47:58 80° 278° (W) 12:56:44 435.465 / 435.565
AISAT 04 Aug 12:46:46 12:50:40 30° 288° (WNW) 12:54:30 437.250
Cosmos 2504 04 Aug 12:47:41 12:54:21 26° 70° (ENE) 13:01:23 435.465 / 435.565
CUBEBUG 1 04 Aug 12:49:06 12:53:18 50° 285° (WNW) 12:57:30 437.445
Oscar 19 04 Aug 12:51:37 12:55:48 27° 70° (ENE) 13:00:07 437.125/150
DX 1 04 Aug 12:57:38 13:00:05 14° 292° (WNW) 13:02:21 434.975-435.025
TISAT 1 04 Aug 13:08:04 13:12:03 40° 98° (E) 13:16:04 437.305
SPROUT 04 Aug 13:10:41 13:15:00 79° 102° (ESE) 13:19:18 437.525
VELOX 1 04 Aug 13:26:22 13:28:20 13° 293° (WNW) 13:30:05 145.980
